Regional Weather Roundup
Issued by NWS

Home | Current Version | Previous Version | Graphics & Text | Print | Product List | Glossary On
Versions: 1 2 3 4 5 6 7 8 9 10 11 12 13 14 15 16 17 18 19 20 21 22 23 24 25 26 27 28 29 30 31 32 33 34 35 36 37 38 39 40 41 42 43 44 45 46 47 48 49 50
000
ASUS43 KFSD 271002
RWRSD

WEATHER ROUNDUP FOR SOUTH DAKOTA
NATIONAL WEATHER SERVICE SIOUX FALLS SD
500 AM CDT SAT AUG 27 2016

NOTE: "FAIR" INDICATES FEW OR NO CLOUDS BELOW 12,000 FEET WITH NO
SIGNIFICANT WEATHER AND/OR OBSTRUCTIONS TO VISIBILITY.


SDZ001>005-009-010-012>017-271100-
NORTHWEST AND NORTH CENTRAL SOUTH DAKOTA

CITY           SKY/WX    TMP DP  RH WIND       PRES   REMARKS
BUFFALO          N/A     52  49  89 E6        29.91F
FAITH            N/A     51  51 100 N6        29.97R
MOBRIDGE       CLOUDY    60  54  80 S8        29.93F
$$

SDZ012>016-024>037-041>051-057-063-072>074-271100-
SOUTHWEST AND SOUTH CENTRAL SOUTH DAKOTA

CITY           SKY/WX    TMP DP  RH WIND       PRES   REMARKS
RAPID CTY ARPT LGT RAIN  54  51  90 W3        30.00S
PIERRE         PTCLDY    56  54  93 SE8       29.94F
CUSTER         MOCLDY    48  45  89 W5        30.09S
ELLSWORTH AFB  LGT RAIN  55  54  97 VRB1      29.98
PHILIP         MOCLDY    60  49  66 W6        29.93F
PINE RIDGE     PTCLDY    53  53 100 CALM      30.03S
WINNER         FAIR      60  57  89 S10       29.98F
$$

SDZ004>011-016>023-039-040-271100-
NORTHEAST SOUTH DAKOTA

CITY           SKY/WX    TMP DP  RH WIND       PRES   REMARKS
ABERDEEN       CLOUDY    59  56  89 S8        29.98F
WATERTOWN      CLOUDY    61  58  90 S5        30.02S
BROOKINGS      CLOUDY    60  58  92 SE7       30.02R
$$

SDZ017-020-022-023-036>040-048>070-271100-
SOUTHEAST SOUTH DAKOTA

CITY           SKY/WX    TMP DP  RH WIND       PRES   REMARKS
SIOUX FALLS    LGT RAIN  61  61 100 E3        30.01S FOG
HURON          CLEAR     57  56  96 SE5       29.99S
CHAMBERLAIN    CLEAR     58  58 100 SE3       30.00S
MITCHELL       CLOUDY    63  61  93 SE10      30.00S
YANKTON        CLOUDY    63  59  88 CALM      30.00S
$$

ABBREVIATIONS USED IN REMARKS
   TC - TEMPERATURE IN CELSIUS
  WCI - WIND CHILL INDEX
   HX - HEAT INDEX
  VSB - VISIBILITY





USA.gov is the U.S. government's official web portal to all federal, state and local government web resources and services.